Alexandria, LA

9:33 AM CDT on July 25, 2016 (GMT -0500)
Alexandria International

Weather History for KAEX - January, 2008

Change the Weather History Date:

Friday, January 18, 2008

  Actual Average Record
Temperature  
Mean Temperature 43 °F 49 °F  
Max Temperature 47 °F 59 °F 82 °F (1907)
Min Temperature 38 °F 38 °F 13 °F (1930)
Degree Days  
Heating Degree Days 22 16  
Month to date heating degree days 255 288  
Since 1 July heating degree days 842 1077  
Moisture  
Dew Point 32 °F    
Average Humidity 71    
Maximum Humidity 87    
Minimum Humidity 54    
Precipitation  
Precipitation 0.03 in 0.18 in 2.55 in (1987)
Month to date precipitation 1.62 2.77  
Year to date precipitation 1.62 2.77  
Snow  
Snow 0.00 in - 0.30 in (1940)
Month to date snowfall 0.0  
Since 1 July snowfall 0.0  
Snow Depth 0.00 in    
Sea Level Pressure  
Sea Level Pressure 30.19 in    
Wind  
Wind Speed 6 mph (NNE)    
Max Wind Speed 12 mph    
Max Gust Speed -    
Visibility 10 miles    
Events Rain    
T = Trace of Precipitation, MM = Missing Value Source: NWS Daily Summary

Daily Weather History Graph

Daily Weather History Graph

Search for Another Location

Airport or City:

Trip Planner

Search our weather history database for the weather conditions in past years. The results will help you decide how hot, cold, wet, or windy it might be!

Date:

Astronomy

Jan. 18, 2008 Rise Set
Actual Time 7:09 AM CST 5:32 PM CST
Civil Twilight 6:43 AM CST 5:58 PM CST
Nautical Twilight 6:13 AM CST 6:28 PM CST
Astronomical Twilight 5:44 AM CST 6:57 PM CST
Moon 1:30 PM CST (1/18) 3:23 AM CST (1/18)
Length of Visible Light 11h 15m
Length of Day
10h 23m
Waxing Gibbous, 81% of the Moon is Illuminated
Jan 18
Waxing Gibbous
Jan 22
Full
Jan 29
Last Quarter
Feb 6
New
Feb 13
First Quarter

Hourly Weather History & Observations

Time (CST) Temp. Windchill Dew Point Humidity Pressure Visibility Wind Dir Wind Speed Gust Speed Precip Events Conditions
12:53 AM 39.9 °F 37.8 °F 34.0 °F 79% 30.19 in 10.0 mi NNE 3.5 mph - N/A   Overcast
1:53 AM 39.9 °F 36.7 °F 33.1 °F 77% 30.19 in 10.0 mi NE 4.6 mph - N/A   Overcast
2:53 AM 39.9 °F 35.1 °F 33.1 °F 77% 30.18 in 10.0 mi North 6.9 mph - N/A   Mostly Cloudy
3:53 AM 39.0 °F 35.7 °F 30.9 °F 73% 30.19 in 10.0 mi North 4.6 mph - N/A   Mostly Cloudy
4:53 AM 37.9 °F 34.4 °F 30.0 °F 73% 30.19 in 10.0 mi North 4.6 mph - N/A   Partly Cloudy
5:53 AM 39.0 °F 34.0 °F 30.0 °F 70% 30.22 in 10.0 mi North 6.9 mph - N/A   Overcast
6:53 AM 37.9 °F 32.7 °F 28.9 °F 70% 30.23 in 10.0 mi NE 6.9 mph - N/A   Overcast
7:53 AM 37.9 °F 34.4 °F 28.9 °F 70% 30.24 in 10.0 mi ENE 4.6 mph - N/A   Partly Cloudy
8:53 AM 39.0 °F 34.0 °F 28.9 °F 67% 30.21 in 10.0 mi East 6.9 mph - N/A   Clear
9:53 AM 42.1 °F 37.7 °F 28.9 °F 60% 30.25 in 10.0 mi East 6.9 mph - N/A   Partly Cloudy
10:53 AM 43.0 °F 39.5 °F 30.0 °F 60% 30.23 in 10.0 mi NNE 5.8 mph - N/A   Scattered Clouds
11:53 AM 44.1 °F 40.8 °F 30.0 °F 58% 30.21 in 10.0 mi NNE 5.8 mph - N/A   Overcast
12:53 PM 46.0 °F 41.9 °F 30.0 °F 54% 30.17 in 10.0 mi NE 8.1 mph - N/A   Mostly Cloudy
1:53 PM 46.0 °F 42.5 °F 30.0 °F 54% 30.15 in 10.0 mi North 6.9 mph - 0.00 in   Overcast
2:49 PM 46.4 °F 44.3 °F 32.0 °F 57% 30.14 in 10.0 mi NNE 4.6 mph - 0.00 in Rain Light Rain
2:53 PM 46.0 °F 43.1 °F 33.1 °F 61% 30.15 in 10.0 mi NNE 5.8 mph - 0.00 in   Overcast
3:53 PM 44.1 °F 40.1 °F 30.9 °F 60% 30.18 in 10.0 mi North 6.9 mph - 0.00 in   Overcast
4:26 PM 44.6 °F 39.7 °F 30.2 °F 57% 30.16 in 10.0 mi North 9.2 mph - N/A   Overcast
4:53 PM 43.0 °F 38.2 °F 32.0 °F 65% 30.19 in 10.0 mi North 8.1 mph - N/A   Overcast
5:04 PM 42.8 °F 39.3 °F 32.0 °F 66% 30.18 in 10.0 mi North 5.8 mph - N/A   Overcast
5:53 PM 43.0 °F 38.2 °F 33.1 °F 68% 30.19 in 10.0 mi North 8.1 mph - N/A   Overcast
6:05 PM 42.8 °F 38.0 °F 33.8 °F 70% 30.18 in 10.0 mi NNE 8.1 mph - N/A   Overcast
6:53 PM 42.1 °F 36.6 °F 34.0 °F 73% 30.18 in 10.0 mi North 9.2 mph - N/A   Overcast
7:53 PM 41.0 °F 34.3 °F 35.1 °F 79% 30.21 in 10.0 mi North 11.5 mph - 0.00 in Rain Light Rain
8:50 PM 39.2 °F 35.0 °F 35.6 °F 87% 30.19 in 8.0 mi North 5.8 mph - 0.01 in Rain Light Rain
8:53 PM 39.9 °F 35.8 °F 35.1 °F 83% 30.21 in 7.0 mi NNE 5.8 mph - 0.01 in Rain Light Rain
9:02 PM 39.2 °F 34.2 °F 35.6 °F 87% 30.19 in 7.0 mi NNE 6.9 mph - 0.00 in Rain Light Rain
9:53 PM 39.0 °F 31.8 °F 35.1 °F 86% 30.21 in 10.0 mi NNE 11.5 mph - 0.00 in   Overcast
10:03 PM 39.2 °F 33.0 °F 33.8 °F 81% 30.18 in 10.0 mi NNE 9.2 mph - N/A   Overcast
10:53 PM 39.0 °F 31.8 °F 34.0 °F 82% 30.19 in 10.0 mi NNE 11.5 mph - 0.01 in   Overcast
11:53 PM 37.9 °F 30.9 °F 33.1 °F 83% 30.19 in 7.0 mi NNE 10.4 mph - 0.01 in Rain Light Rain